Regional Weather Roundup
Issued by NWS

Home | Current Version | Previous Version | Graphics & Text | Print | Product List | Glossary Off
Versions: 1 2 3 4 5 6 7 8 9 10 11 12 13 14 15 16 17 18 19 20 21 22 23 24 25 26 27 28 29 30 31 32 33 34 35 36 37 38 39 40 41 42 43 44 45 46 47 48 49 50

300
ASUS43 KLSX 252307
RWRMO

WEATHER SUMMARY FOR MISSOURI
NATIONAL WEATHER SERVICE SPRINGFIELD MO
600 PM CDT MON SEP 25 2017

NOTE: "FAIR" INDICATES FEW OR NO CLOUDS BELOW 12,000 FEET WITH NO
       SIGNIFICANT WEATHER AND/OR OBSTRUCTIONS TO VISIBILITY.
       CURRENT SKY AND/OR WEATHER CONDITIONS ARE NOT AVAILABLE FOR
       CHILLICOTHE AND FARMINGTON.

MOZ001>031-035>038-043-044-053-054-260000-
...NORTHERN AND WESTERN MISSOURI...

CITY           SKY/WX    TMP DP  RH WIND       PRES   REMARKS
KANSAS CTY INT CLOUDY    82  68  62 S6        29.87S
KANSAS C DTWN  CLOUDY    86  66  51 S7        29.85S
LEE`S SUMMIT   SUNNY     85  64  49 S13       29.88S
ST JOSEPH      PTSUNNY   73  67  81 N9        29.89R
CHILLICOTHE      N/A     85  63  47 S10       29.87R
KIRKSVILLE     MOSUNNY   83  64  52 SE9       29.90R

$$
MOZ066>068-077>081-088>096-101>105-260000-
...SOUTHWEST MISSOURI...

CITY           SKY/WX    TMP DP  RH WIND       PRES   REMARKS
SPRINGFIELD    SUNNY     85  59  41 SE13      29.89F
JOPLIN         MOSUNNY   85  64  49 SE8       29.88S
BRANSON        MOSUNNY   84  59  42 S6        29.92S

$$
MOZ032>034-039>042-045>050-055>058-069>072-260000-
...CENTRAL MISSOURI...

CITY           SKY/WX    TMP DP  RH WIND       PRES   REMARKS
COLUMBIA       SUNNY     84  67  56 SE5       29.90S
JEFFERSON CITY MOSUNNY   86  64  47 SE3       29.87F
ROLLA          SUNNY     86  60  41 S8        29.92S
SEDALIA        SUNNY     86  66  51 S8        29.89F
WHITEMAN AFB   MOSUNNY   84  66  55 S9        29.87S
WARRENSBURG    MOSUNNY   82  63  51 S7        29.87S
OSAGE BEACH    SUNNY     85  65  51 S3        29.90F

$$
MOZ051-052-059>065-260000-
...EAST CENTRAL MISSOURI...

CITY           SKY/WX    TMP DP  RH WIND       PRES   REMARKS
ST LOUIS INTL  PTCLDY    90  60  36 S13       29.90S
SPIRIT OF STL  MOCLDY    83  70  64 SE3       29.88S
ST CHARLES     PTCLDY    89  61  38 SE9       29.88S

$$
MOZ072>076-082>087-097>100-106>115-260000-
...SOUTH CENTRAL AND SOUTHEAST MISSOURI...

CITY           SKY/WX    TMP DP  RH WIND       PRES   REMARKS
CAPE GIRARDEAU CLEAR     87  61  41 SE7       29.91S
FARMINGTON     CLEAR     85  63  47 SE10      29.94F
POPLAR BLUFF   PTCLDY    86  62  44 S6        29.91S
WEST PLAINS    SUNNY     84  59  42 SE6       29.95S

$$



USA.gov is the U.S. government's official web portal to all federal, state and local government web resources and services.